Location: Chagrin Falls Park
(41.4139°N, 81.3865°W)
Time: 02:54:31
(UTC+00:00)

STARLINK-2521 - Pass Details

Date: 31 July 2021
Orbit: 546 x 548 km, 53.1° (Epoch: 21 September)

Event Time Altitude Azimuth Distance (km) Brightness Sun altitude
Rises 02:04:15 0° 305° (NW) 2,722 9.2 -13.4°
Reaches altitude 10° 02:06:31 10° 301° (WNW) 1,825 7.7 -13.8°
Maximum altitude 02:10:35 56° 223° (SW) 654 4.0 -14.3°
Enters shadow 02:12:52 24° 153° (SSE) 1,157 4.7 -14.7°
